EW5833 Weather Reports


Display with metric or nautical units.
time (UTC)temp
F
wind
direction
speed
MPH
gust
MPH
rain 1hr
in
rain 24hr
in
rain mn
in
humidity
%
barometer
mb
20260901034523 73 170 1.0 4.0 0.00 0.06 0.06 87 1014.1
20260901034104 72 0 0.0 3.0 0.00 0.06 0.06 87 1014.2
20260901033522 72 0 0.0 3.0 0.00 0.06 0.06 87 1014.2
20260901033055 72 0 0.0 2.0 0.00 0.06 0.06 86 1014.2
20260901032522 72 271 0.0 2.0 0.00 0.06 0.06 86 1014.2
20260901031610 71 170 0.0 2.0 0.00 0.06 0.06 87 1014.1
20260901031509 71 239 0.0 2.0 0.00 0.06 0.06 87 1014.1
20260901030604 71 0 0.0 2.0 0.00 0.06 0.06 89 1014.1
20260901030509 71 0 0.0 2.0 0.00 0.06 0.06 88 1014.1
20260901025554 70 0 0.0 2.0 0.00 0.06 0.06 88 1014.2
20260901025509 70 0 0.0 2.0 0.00 0.06 0.06 88 1014.2
20260901024509 70 0 0.0 0.0 0.00 0.06 0.06 90 1014.3
20260901023509 70 0 0.0 0.0 0.00 0.06 0.06 90 1014.2
20260901022502 70 0 0.0 1.0 0.00 0.06 0.06 91 1014.2
20260901021502 70 0 0.0 0.0 0.00 0.06 0.06 91 1014.3
20260901020502 70 0 0.0 1.0 0.00 0.06 0.06 91 1014.3
20260901015530 70 0 0.0 4.0 0.00 0.06 0.06 92 1014.4
20260901015502 70 132 0.0 4.0 0.00 0.06 0.06 92 1014.4
20260901014502 70 165 1.0 3.0 0.00 0.06 0.06 92 1014.4
20260901014449 70 157 0.0 2.0 0.00 0.06 0.06 93 1014.2
20260901013504 70 0 0.0 2.0 0.00 0.06 0.06 93 1014.2
20260901012530 71 148 0.0 2.0 0.00 0.06 0.06 93 1014.2
20260901012501 71 178 0.0 2.0 0.00 0.06 0.06 93 1014.2
20260901012009 71 0 0.0 2.0 0.00 0.06 0.06 93 1014.1
20260901011504 71 0 0.0 2.0 0.00 0.06 0.06 93 1014.0
20260901010529 71 134 0.0 2.0 0.00 0.06 0.06 93 1014.0
20260901010501 71 152 0.0 2.0 0.00 0.06 0.06 93 1014.0
20260901010014 71 191 0.0 3.0 0.00 0.06 0.06 93 1013.8
20260901005502 71 228 0.0 3.0 0.00 0.06 0.06 93 1013.8
20260901005011 71 0 0.0 2.0 0.00 0.06 0.06 92 1013.7
20260901004502 71 175 0.0 2.0 0.00 0.06 0.06 92 1013.6
20260901003531 71 0 1.0 4.0 0.00 0.06 0.06 92 1013.5
20260901003502 71 0 1.0 4.0 0.00 0.06 0.06 92 1013.6
20260901003007 71 210 1.0 2.0 0.00 0.06 0.06 91 1013.5
20260901002502 71 210 1.0 2.0 0.00 0.06 0.06 91 1013.5
20260901001529 72 196 1.0 3.0 0.00 0.06 0.06 90 1013.5
20260901001503 72 0 1.0 3.0 0.00 0.06 0.06 90 1013.5
20260901000529 72 215 0.0 3.0 0.00 0.06 0.06 89 1013.6
20260901000503 72 215 0.0 3.0 0.00 0.06 0.06 89 1013.6
20260831235528 73 184 0.0 2.0 0.00 0.06 0.06 89 1013.6
20260831235503 73 184 0.0 2.0 0.00 0.06 0.06 89 1013.7
20260831234952 73 209 1.0 3.0 0.00 0.06 0.06 87 1013.7
20260831234716 73 122 1.0 3.0 0.00 0.06 0.06 88 1013.6
20260831234404 74 179 1.0 5.0 0.00 0.06 0.06 86 1013.9
20260831233648 74 212 1.0 3.0 0.00 0.06 0.06 87 1013.8
20260831233641 74 170 1.0 3.0 0.00 0.06 0.06 87 1013.8
20260831232715 74 131 1.0 5.0 0.00 0.06 0.06 86 1013.9
20260831231530 74 173 1.0 4.0 0.00 0.06 0.06 86 1013.9
20260831231500 74 0 1.0 4.0 0.00 0.06 0.06 86 1013.9
20260831230530 74 189 1.0 3.0 0.00 0.06 0.06 85 1014.0
20260831230501 74 189 1.0 3.0 0.00 0.06 0.06 86 1014.0
20260831225529 75 137 2.0 4.0 0.00 0.06 0.06 85 1014.2
20260831225503 75 129 2.0 4.0 0.00 0.06 0.06 85 1014.3
20260831224534 74 188 2.0 5.0 0.00 0.06 0.06 85 1014.4
20260831224503 74 241 2.0 5.0 0.00 0.06 0.06 86 1014.3
20260831224157 74 0 0.0 0.0 0.00 0.06 0.06 89 1014.7
20260831223950 74 0 0.0 2.0 0.00 0.06 0.06 89 1014.8
20260831222528 74 85 0.0 2.0 0.00 0.06 0.06 88 1014.8
20260831222503 74 85 0.0 2.0 0.00 0.06 0.06 89 1014.8
20260831221528 73 0 1.0 4.0 0.00 0.06 0.06 89 1014.9
20260831221501 74 0 1.0 4.0 0.00 0.06 0.06 90 1014.9
20260831220530 74 177 1.0 4.0 0.00 0.06 0.06 88 1014.9
20260831220501 74 181 1.0 3.0 0.00 0.06 0.06 89 1014.9
20260831220422 74 154 1.0 4.0 0.00 0.06 0.06 88 1014.9
20260831215717 74 131 2.0 4.0 0.00 0.06 0.06 88 1015.0
20260831214529 74 194 2.0 6.0 0.00 0.06 0.06 87 1014.6
20260831214500 74 160 2.0 6.0 0.00 0.06 0.06 87 1014.6
20260831213501 73 212 2.0 4.0 0.00 0.06 0.06 89 1014.5
20260831212531 73 230 2.0 4.0 0.00 0.06 0.06 89 1014.8
20260831212501 73 220 2.0 4.0 0.00 0.06 0.06 89 1014.8
20260831211530 73 183 2.0 5.0 0.00 0.06 0.06 91 1015.0
20260831211501 73 177 2.0 5.0 0.00 0.06 0.06 90 1015.0
20260831210531 73 190 2.0 4.0 0.00 0.06 0.06 90 1015.0
20260831210500 73 0 2.0 4.0 0.00 0.06 0.06 90 1015.0
20260831205530 73 146 2.0 6.0 0.00 0.06 0.06 90 1014.7
20260831205501 73 131 2.0 9.0 0.00 0.06 0.06 90 1014.8
20260831204531 73 113 3.0 9.0 0.00 0.06 0.06 90 1014.8
20260831204502 73 176 2.0 5.0 0.00 0.06 0.06 90 1014.9
20260831203941 74 171 2.0 6.0 0.00 0.06 0.06 90 1014.9
20260831203717 74 144 2.0 6.0 0.00 0.06 0.06 90 1014.9
20260831202502 74 132 2.0 5.0 0.00 0.06 0.06 90 1015.1
20260831201502 74 240 2.0 4.0 0.00 0.06 0.06 89 1015.2
20260831201009 74 153 2.0 4.0 0.00 0.06 0.06 89 1015.3
20260831200503 74 66 2.0 6.0 0.00 0.06 0.06 89 1015.3
20260831200440 74 77 3.0 6.0 0.00 0.06 0.06 89 1015.6
20260831195720 74 99 3.0 6.0 0.00 0.06 0.06 89 1015.6
20260831194503 74 113 3.0 5.0 0.00 0.06 0.06 89 1015.8
20260831193535 73 89 3.0 5.0 0.00 0.06 0.06 91 1016.0
20260831193503 73 114 3.0 5.0 0.00 0.06 0.06 91 1016.0
20260831192530 72 153 2.0 4.0 0.02 0.06 0.06 91 1016.6
20260831192510 72 105 2.0 4.0 0.02 0.06 0.06 91 1016.6
20260831191943 72 111 0.0 3.0 0.02 0.06 0.06 93 1016.8
20260831191717 72 111 0.0 3.0 0.02 0.06 0.06 93 1016.8
20260831190503 72 0 1.0 3.0 0.02 0.06 0.06 93 1016.8
20260831185943 72 103 2.0 4.0 0.02 0.06 0.06 92 1016.6
20260831185449 72 108 2.0 4.0 0.02 0.06 0.06 92 1016.6
20260831184948 72 0 1.0 3.0 0.02 0.06 0.06 94 1016.8
20260831184448 72 0 1.0 3.0 0.02 0.06 0.06 94 1016.8
20260831183908 72 0 1.0 2.0 0.02 0.06 0.06 93 1016.7
20260831183646 72 0 1.0 2.0 0.02 0.06 0.06 93 1016.7
20260831182502 73 0 0.0 2.0 0.00 0.04 0.04 92 1017.3
20260831182432 73 114 0.0 2.0 0.00 0.04 0.04 92 1017.3
20260831181503 73 0 0.0 2.0 0.00 0.04 0.04 90 1016.8
20260831181431 73 316 0.0 2.0 0.00 0.04 0.04 90 1016.7
20260831180938 74 0 0.0 3.0 0.00 0.04 0.04 88 1016.1
20260831180431 74 0 0.0 3.0 0.00 0.05 0.04 87 1016.1
20260831175503 74 0 1.0 4.0 0.00 0.05 0.04 87 1016.0
20260831175431 74 0 1.0 4.0 0.00 0.05 0.04 86 1016.0
20260831174916 73 123 2.0 3.0 0.01 0.05 0.04 91 1016.0
20260831174646 73 126 2.0 3.0 0.01 0.05 0.04 90 1016.0
20260831173501 73 59 0.0 2.0 0.02 0.05 0.04 93 1016.2
20260831173431 73 59 0.0 2.0 0.02 0.05 0.04 93 1016.2
20260831172940 72 0 0.0 1.0 0.03 0.05 0.03 93 1016.5
20260831172431 72 0 0.0 1.0 0.03 0.05 0.03 92 1016.2
20260831171503 71 0 0.0 2.0 0.03 0.05 0.03 92 1016.7
20260831171431 71 0 0.0 2.0 0.03 0.05 0.03 92 1016.7
20260831170502 71 0 0.0 0.0 0.03 0.05 0.03 95 1016.5
20260831170432 71 0 0.0 0.0 0.03 0.05 0.03 95 1016.5
20260831165502 70 0 1.0 3.0 0.03 0.05 0.03 95 1016.4
20260831165430 70 0 2.0 3.0 0.03 0.05 0.03 95 1016.4
20260831164502 71 120 1.0 4.0 0.03 0.04 0.03 93 1016.8
20260831164429 71 125 1.0 4.0 0.03 0.04 0.03 93 1016.8
20260831163504 72 0 1.0 5.0 0.02 0.04 0.02 88 1017.5
20260831163431 72 0 1.0 5.0 0.02 0.04 0.02 88 1017.5
20260831162502 74 298 2.0 8.0 0.00 0.05 0.00 84 1018.0
20260831162430 74 302 2.0 8.0 0.00 0.05 0.00 84 1018.0
20260831161501 75 248 3.0 8.0 0.00 0.05 0.00 81 1018.1
20260831161429 75 247 3.0 8.0 0.00 0.05 0.00 81 1018.0
20260831161403 75 341 1.0 4.0 0.00 0.09 0.00 82 1017.8
20260831160651 76 226 2.0 4.0 0.00 0.06 0.00 80 1018.1
20260831160430 76 17 1.0 4.0 0.00 0.06 0.00 80 1018.1
20260831155432 75 0 1.0 4.0 0.00 0.09 0.00 82 1017.8
20260831154502 75 150 0.0 3.0 0.00 0.09 0.00 83 1017.6
20260831154431 75 337 0.0 3.0 0.00 0.09 0.00 83 1017.6
20260831153502 75 0 0.0 2.0 0.00 0.11 0.00 84 1017.5
20260831153436 75 0 0.0 2.0 0.00 0.11 0.00 84 1017.5
20260831152502 74 0 0.0 2.0 0.00 0.13 0.00 84 1017.5
20260831152430 74 47 0.0 2.0 0.00 0.13 0.00 84 1017.5
20260831151504 74 0 0.0 0.0 0.00 0.15 0.00 86 1017.3
20260831151431 74 0 0.0 0.0 0.00 0.15 0.00 87 1017.3
20260831150504 73 0 0.0 2.0 0.00 0.16 0.00 87 1017.1
20260831150430 73 0 0.0 2.0 0.00 0.16 0.00 88 1017.1
20260831145503 73 0 0.0 2.0 0.00 0.18 0.00 88 1016.9
20260831145430 73 0 0.0 2.0 0.00 0.18 0.00 88 1016.9
20260831144938 72 0 0.0 1.0 0.00 0.18 0.00 88 1016.7
20260831144430 72 0 0.0 1.0 0.00 0.18 0.00 90 1016.6
20260831143452 72 145 0.0 1.0 0.00 0.19 0.00 91 1016.5
20260831143431 72 160 0.0 1.0 0.00 0.19 0.00 91 1016.5
20260831142431 72 0 0.0 1.0 0.00 0.21 0.00 91 1016.5
20260831142418 71 0 0.0 2.0 0.00 0.23 0.00 92 1016.5
20260831142205 71 0 0.0 1.0 0.00 0.23 0.00 92 1016.6
20260831140436 71 176 1.0 2.0 0.00 0.26 0.00 92 1016.5
20260831140422 71 176 1.0 2.0 0.00 0.26 0.00 92 1016.5
20260831135917 71 136 0.0 1.0 0.00 0.29 0.00 93 1016.4
20260831135407 71 0 0.0 1.0 0.00 0.29 0.00 92 1016.4
20260831134408 71 136 1.0 2.0 0.00 0.31 0.00 91 1016.5
20260831133408 70 0 1.0 2.0 0.00 0.34 0.00 92 1016.4
20260831133325 70 133 0.0 2.0 0.00 0.36 0.00 93 1016.5
20260831132621 70 133 0.0 2.0 0.00 0.36 0.00 93 1016.5
20260831132023 70 0 0.0 1.0 0.00 0.39 0.00 93 1016.5
20260831131839 70 0 0.0 3.0 0.00 0.44 0.00 93 1016.1
20260831131757 70 0 0.0 1.0 0.00 0.39 0.00 93 1016.5
20260831130619 70 0 0.0 3.0 0.00 0.44 0.00 93 1016.1
20260831125402 69 0 1.0 2.0 0.00 0.47 0.00 93 1016.0
20260831124402 69 0 0.0 1.0 0.00 0.50 0.00 95 1016.0
20260831123401 69 0 0.0 0.0 0.00 0.54 0.00 96 1016.1
20260831122907 69 0 0.0 0.0 0.00 0.56 0.00 96 1016.1
20260831122412 69 0 0.0 0.0 0.00 0.56 0.00 96 1016.1
20260831121912 68 0 0.0 0.0 0.00 0.59 0.00 96 1016.2
20260831121404 68 0 0.0 0.0 0.00 0.60 0.00 96 1016.2
20260831120402 68 0 0.0 0.0 0.00 0.61 0.00 96 1016.1
20260831115845 68 0 0.0 0.0 0.00 0.62 0.00 96 1016.2
20260831115616 68 0 0.0 0.0 0.00 0.62 0.00 96 1016.2
20260831115357 68 0 0.0 2.0 0.00 0.62 0.00 96 1016.2
20260831114403 68 0 0.0 2.0 0.00 0.62 0.00 96 1016.2
20260831113907 68 0 0.0 2.0 0.00 0.63 0.00 96 1016.4
20260831113403 68 0 0.0 2.0 0.00 0.63 0.00 96 1016.4
20260831112402 68 0 0.0 0.0 0.00 0.63 0.00 95 1016.4
20260831111912 68 0 0.0 1.0 0.00 0.63 0.00 97 1016.4
20260831111402 68 0 0.0 1.0 0.00 0.63 0.00 97 1016.4
20260831110843 68 0 0.0 2.0 0.00 0.63 0.00 97 1016.5
20260831110618 68 0 0.0 2.0 0.00 0.63 0.00 97 1016.5
20260831105404 67 0 0.0 0.0 0.00 0.63 0.00 97 1016.4
20260831104404 68 0 0.0 0.0 0.00 0.63 0.00 97 1016.2
20260831103403 68 0 0.0 0.0 0.00 0.63 0.00 96 1016.2
20260831102404 68 0 0.0 0.0 0.00 0.63 0.00 96 1016.2
20260831101404 68 0 0.0 0.0 0.00 0.63 0.00 96 1016.1
20260831100849 68 0 0.0 0.0 0.00 0.63 0.00 96 1016.0
20260831100403 68 0 0.0 0.0 0.00 0.63 0.00 96 1016.0
20260831095403 68 0 0.0 0.0 0.00 0.64 0.00 97 1016.0
20260831094403 67 0 0.0 0.0 0.00 0.65 0.00 98 1016.0
20260831093403 67 0 0.0 0.0 0.00 0.66 0.00 98 1016.0
20260831092847 67 0 0.0 1.0 0.00 0.66 0.00 98 1016.0
20260831092408 67 0 0.0 1.0 0.00 0.66 0.00 98 1016.0
20260831091401 67 229 0.0 1.0 0.00 0.66 0.00 99 1016.0
20260831090847 67 0 0.0 1.0 0.00 0.67 0.00 99 1016.1
20260831090613 67 0 0.0 1.0 0.00 0.67 0.00 99 1016.1
20260831090322 67 189 0.0 2.0 0.00 0.67 0.00 99 1016.1
20260831085403 67 189 0.0 2.0 0.00 0.67 0.00 99 1016.1
20260831084851 66 0 0.0 0.0 0.00 0.69 0.00 99 1016.1
20260831084402 66 0 0.0 0.0 0.00 0.69 0.00 99 1016.1
20260831083402 65 0 0.0 0.0 0.00 0.70 0.00 98 1016.0
20260831082358 66 0 0.0 0.0 0.00 0.74 0.00 98 1015.8
20260831081841 66 0 0.0 0.0 0.00 0.74 0.00 98 1015.7
20260831081359 66 0 0.0 0.0 0.00 0.74 0.00 98 1015.7
20260831081316 66 0 0.0 0.0 0.00 0.74 0.00 98 1015.8
20260831080359 66 0 0.0 0.0 0.00 0.74 0.00 98 1015.8
20260831075401 66 0 0.0 0.0 0.00 0.74 0.00 98 1016.0
20260831074359 66 0 0.0 0.0 0.00 0.74 0.00 98 1016.0
20260831073838 66 0 0.0 0.0 0.00 0.74 0.00 98 1016.1
20260831073610 66 0 0.0 0.0 0.00 0.74 0.00 98 1016.1
20260831072831 66 0 0.0 0.0 0.00 0.74 0.00 98 1016.1
20260831072343 66 0 0.0 0.0 0.00 0.74 0.00 98 1016.1
20260831071344 66 0 0.0 0.0 0.00 0.75 0.00 98 1016.0
20260831070815 67 0 0.0 0.0 0.00 0.75 0.00 98 1016.2
20260831070556 67 0 0.0 0.0 0.00 0.75 0.00 98 1016.2
20260831065344 67 0 0.0 0.0 0.00 0.75 0.00 98 1016.4
20260831064344 67 0 0.0 0.0 0.00 0.75 0.00 97 1016.5
20260831063344 67 0 0.0 0.0 0.00 0.75 0.00 97 1016.5
20260831062345 67 0 0.0 0.0 0.00 0.75 0.00 97 1016.5
20260831061345 67 0 0.0 0.0 0.00 0.75 0.00 97 1016.5
20260831060835 67 0 0.0 0.0 0.00 0.75 0.00 97 1016.5
20260831060345 67 0 0.0 0.0 0.00 0.75 0.00 97 1016.5
20260831055810 68 0 0.0 0.0 0.00 0.75 0.00 96 1016.6
20260831055330 68 0 0.0 0.0 0.00 0.75 0.00 96 1016.6
20260831054330 68 0 0.0 0.0 0.00 0.75 0.00 96 1016.7
20260831053330 68 0 0.0 3.0 0.00 0.75 0.00 96 1016.6
20260831053248 68 0 0.0 2.0 0.00 0.75 0.00 97 1016.6
20260831052330 68 0 0.0 2.0 0.00 0.75 0.00 97 1016.6
20260831051806 68 0 0.0 2.0 0.00 0.75 0.00 97 1016.6
20260831051541 68 0 0.0 2.0 0.00 0.75 0.00 97 1016.6
20260831050330 68 0 0.0 2.0 0.00 0.75 0.00 97 1016.7
20260831045329 68 0 0.0 0.0 0.00 0.75 0.00 97 1016.8
20260831044330 68 0 0.0 2.0 0.00 0.75 0.00 97 1016.8
20260831043330 68 178 0.0 3.0 0.00 0.75 0.00 96 1016.8
20260831042811 67 0 0.0 3.0 0.00 0.76 0.00 97 1016.7
20260831042330 67 0 0.0 3.0 0.00 0.76 0.00 97 1016.7
20260831042254 67 0 0.0 2.0 0.00 0.76 0.00 97 1016.7
20260831041330 67 0 0.0 2.0 0.00 0.76 0.00 97 1016.7
20260831040819 67 0 0.0 2.0 0.00 0.76 0.00 97 1016.8
20260831040331 67 0 0.0 2.0 0.00 0.76 0.00 97 1016.8
20260831035332 67 0 0.0 2.0 0.00 0.76 0.76 97 1016.8